WB5MTX Weather Reports


Display with metric or nautical units.
time (UTC)temp
F
wind
direction
speed
MPH
gust
MPH
rain 1hr
in
rain 24hr
in
rain mn
in
humidity
%
barometer
mb
20260507033052 60 0 0.0 5.0 0.00 0.06 0.06 75 1016.7
20260507031554 60 0 0.0 1.0 0.00 0.06 0.06 75 1016.7
20260507030057 60 0 0.0 0.0 0.00 0.06 0.06 76 1016.5
20260507024558 60 0 0.0 0.0 0.00 0.06 0.06 77 1016.6
20260507023053 60 0 0.0 5.0 0.00 0.06 0.06 78 1016.2
20260507021554 60 0 0.0 0.0 0.00 0.06 0.06 78 1015.8
20260507020056 61 0 0.0 0.0 0.00 0.06 0.06 77 1015.4
20260507014553 61 0 0.0 0.0 0.00 0.06 0.06 80 1015.1
20260507013052 62 0 0.0 0.0 0.00 0.06 0.06 80 1014.6
20260507011551 62 0 0.0 0.0 0.00 0.06 0.06 79 1014.5
20260507010110 63 0 0.0 0.0 0.00 0.06 0.06 77 1014.3
20260507004554 63 0 0.0 0.0 0.00 0.06 0.06 77 1014.2
20260507003053 63 0 0.0 0.0 0.00 0.06 0.06 77 1014.1
20260507001558 64 0 0.0 0.0 0.00 0.06 0.06 75 1014.1
20260507000056 64 0 0.0 0.0 0.00 0.06 0.06 76 1013.8
20260506234557 65 0 0.0 0.0 0.00 0.06 0.06 74 1013.8
20260506233100 64 0 0.0 0.0 0.00 0.06 0.06 77 1013.5
20260506231551 64 0 0.0 0.0 0.00 0.06 0.06 76 1013.4
20260506230056 64 0 0.0 0.0 0.00 0.06 0.06 76 1013.3
20260506224554 63 0 0.0 1.0 0.02 0.06 0.06 77 1013.3
20260506223100 62 0 0.0 0.0 0.02 0.06 0.06 79 1013.2
20260506221553 62 0 0.0 0.0 0.02 0.06 0.06 81 1013.6
20260506220053 62 0 0.0 0.0 0.02 0.06 0.06 84 1013.0
20260506214551 63 0 0.0 3.0 0.00 0.04 0.04 73 1013.6
20260506213055 64 0 0.0 4.0 0.00 0.04 0.04 67 1013.2
20260506211601 63 0 0.0 8.0 0.00 0.04 0.04 68 1013.5
20260506210057 63 0 0.0 6.0 0.00 0.04 0.04 70 1013.5
20260506204613 63 316 1.0 6.0 0.00 0.04 0.04 67 1013.7
20260506203100 63 0 0.0 8.0 0.00 0.04 0.04 68 1013.5
20260506201600 63 318 1.0 8.0 0.00 0.04 0.04 67 1014.0
20260506200057 62 0 0.0 8.0 0.00 0.04 0.04 69 1014.2
20260506194602 62 0 0.0 6.0 0.00 0.04 0.04 69 1014.3
20260506193057 60 0 0.0 3.0 0.00 0.04 0.04 72 1014.5
20260506191554 59 324 0.0 5.0 0.00 0.04 0.04 74 1014.9
20260506190059 58 315 0.0 8.0 0.00 0.04 0.04 73 1014.8
20260506184557 57 0 0.0 4.0 0.00 0.04 0.04 77 1015.1
20260506183056 57 0 0.0 6.0 0.00 0.04 0.04 76 1015.1
20260506181604 57 336 1.0 9.0 0.00 0.04 0.04 76 1014.6
20260506180057 57 338 5.0 14.0 0.00 0.04 0.04 77 1013.6
20260506174601 56 0 0.0 8.0 0.00 0.04 0.04 78 1014.0
20260506173118 55 0 0.0 3.0 0.00 0.04 0.04 82 1014.2
20260506171555 54 0 0.0 8.0 0.00 0.04 0.04 83 1014.6
20260506170055 54 0 0.0 2.0 0.00 0.04 0.04 85 1014.5
20260506164557 54 0 0.0 3.0 0.00 0.04 0.04 86 1014.2
20260506163102 53 0 0.0 5.0 0.00 0.04 0.04 86 1014.6
20260506161609 53 319 0.0 6.0 0.00 0.04 0.04 87 1014.3
20260506160107 53 0 0.0 3.0 0.00 0.04 0.04 88 1014.5
20260506154602 54 253 0.0 11.0 0.03 0.04 0.04 89 1013.9
20260506153100 54 333 0.0 13.0 0.04 0.04 0.04 91 1013.6
20260506151558 52 342 0.0 4.0 0.04 0.04 0.04 91 1014.3
20260506150101 51 0 0.0 5.0 0.03 0.03 0.03 89 1015.5
20260506144612 52 0 0.0 5.0 0.01 0.01 0.01 86 1015.5
20260506143100 52 0 1.0 11.0 0.00 0.00 0.00 84 1015.4
20260506141558 52 0 3.0 11.0 0.00 0.00 0.00 83 1014.0
20260506140113 52 0 4.0 11.0 0.00 0.00 0.00 83 1014.0
20260506134554 52 0 2.0 12.0 0.00 0.00 0.00 81 1014.8
20260506133133 53 0 2.0 9.0 0.00 0.00 0.00 80 1013.8
20260506131558 53 329 1.0 10.0 0.00 0.00 0.00 79 1013.5
20260506130136 53 0 0.0 5.0 0.00 0.00 0.00 79 1013.5
20260506124558 54 0 1.0 10.0 0.00 0.00 0.00 78 1013.0
20260506123101 54 319 1.0 5.0 0.00 0.00 0.00 76 1012.8
20260506121600 55 0 1.0 10.0 0.00 0.00 0.00 75 1012.8
20260506120104 55 341 2.0 8.0 0.00 0.00 0.00 75 1012.4
20260506114554 56 323 2.0 9.0 0.00 0.00 0.00 75 1012.4
20260506113056 56 0 0.0 6.0 0.00 0.00 0.00 75 1012.2
20260506111554 56 0 1.0 9.0 0.00 0.00 0.00 76 1011.7
20260506110053 57 360 1.0 8.0 0.00 0.00 0.00 76 1011.5
20260506104603 57 360 0.0 10.0 0.00 0.00 0.00 76 1011.5
20260506103055 57 0 0.0 9.0 0.00 0.00 0.00 75 1011.2
20260506101552 57 327 0.0 10.0 0.00 0.00 0.00 76 1010.7
20260506100106 57 0 1.0 6.0 0.00 0.00 0.00 75 1010.5
20260506094601 57 0 0.0 8.0 0.00 0.00 0.00 76 1010.4
20260506093054 57 0 2.0 10.0 0.00 0.00 0.00 76 1010.3
20260506091552 58 0 0.0 9.0 0.00 0.00 0.00 76 1010.3
20260506090054 58 0 1.0 7.0 0.00 0.00 0.00 76 1010.3
20260506084554 58 0 0.0 9.0 0.00 0.00 0.00 77 1010.0
20260506083055 58 0 0.0 8.0 0.00 0.00 0.00 77 1009.8
20260506081605 58 311 1.0 9.0 0.00 0.00 0.00 77 1009.7
20260506073057 60 0 0.0 4.0 0.00 0.00 0.00 78 1009.4
20260506071553 60 0 0.0 0.0 0.00 0.00 0.00 77 1009.4
20260506061553 61 352 0.0 5.0 0.00 0.00 0.00 77 1009.4
20260506060107 61 0 1.0 5.0 0.00 0.00 0.00 76 1009.3
20260506044554 64 0 0.0 4.0 0.00 0.00 0.00 74 1009.4
20260506043056 65 0 0.0 9.0 0.00 0.00 0.00 74 1009.0
20260506041558 65 331 2.0 11.0 0.00 0.00 0.00 74 1009.2
20260506040055 66 345 3.0 14.0 0.00 0.00 0.00 72 1009.3
20260506034612 67 324 3.0 10.0 0.00 0.00 0.00 72 1009.0